Location: Lugano
(46.0000°N, 8.9670°E)
Time: 16:30:17
(UTC+02:00)

Envisat - Pass Details

Date: 19 March 2026
Orbit: 761 x 762 km, 98.4° (Epoch: 19 April)

Event Time Altitude Azimuth Distance (km) Brightness Sun altitude
Rises 04:30:40 0° 1° (N) 3,236 6.6 -21.0°
Reaches altitude 10° 04:33:30 10° 345° (NNW) 2,305 5.6 -20.5°
Enters shadow 04:36:41 20° 306° (NW) 1,713 4.5 -20.0°
